Regional Weather Roundup
Issued by NWS Kansas City/Pleasant Hill, MO

Home | Current Version | Previous Version | Graphics & Text | Print | Product List | Glossary Off
Versions: 1 2 3 4 5 6 7 8 9 10 11 12 13 14 15 16 17 18 19 20 21 22 23 24 25 26 27 28 29 30 31 32 33 34 35 36 37 38 39 40 41 42 43 44 45 46 47 48 49 50

912
ASUS43 KEAX 211110
RWREAX

WEATHER ROUNDUP FOR EASTERN KANSAS AND NORTHWEST MISSOURI
NATIONAL WEATHER SERVICE KANSAS CITY/PLEASANT HILL MO
600 AM CDT SAT OCT 21 2017

KSZ040-057-103>105-MOZ028-029-037-043-211200-
...KANSAS CITY METROPOLITAN AREA...

CITY           SKY/WX    TMP DP  RH WIND       PRES   REMARKS
K.C. INTL      CLOUDY    66  58  75 S24G36    29.81R
K.C. DOWNTOWN  CLOUDY    67  58  72 S13G28    29.83R
LEES SUMMIT    CLOUDY    64  56  75 S20G29    29.86R
OLATHE - IXD   CLOUDY    64  57  78 S14G25    29.84R
OLATHE - OJC   CLOUDY    63  57  81 S17       29.85R
LAWRENCE       CLOUDY    66  59  78 SE18      29.81R

$$

MOZ001>008-011>017-020>025-030>033-038>040-044>046-053-054-211200-
...NORTHERN AND CENTRAL MISSOURI...

CITY           SKY/WX    TMP DP  RH WIND       PRES   REMARKS
ST. JOSEPH     LGT RAIN  66  60  81 S16G26    29.78R
MOSBY          CLOUDY    64  54  68 S8        29.85R
WARRENSBURG    PTCLDY    63  54  72 SE9       29.89R
WHITEMAN AFB   CLEAR     63  55  76 S13       29.86R
CLINTON        CLOUDY    64  55  72 S10       29.91S
SEDALIA        MOCLDY    64  57  78 S14G23    29.93R
WARSAW         NOT AVBL
CHILLICOTHE      N/A     64  58  80 S10G17    29.87R
KIRKSVILLE     PTCLDY    62  56  80 S15G22    29.92R

$$

MOZ041-047>049-056>058-063>065-088>090-097-211200-
...EASTERN AND SOUTHERN MISSOURI...

CITY           SKY/WX    TMP DP  RH WIND       PRES   REMARKS
ST. LOUIS INTL CLOUDY    63  53  70 SE8       30.05R
SPIRIT OF STL  MOCLDY    65  54  67 SE6       30.02S
COLUMBIA       CLOUDY    62  55  77 S13       29.96R
JEFFERSON CITY CLOUDY    65  54  67 SE8       29.96S
ROLLA          PTCLDY    64  55  72 S15       30.01S
OSAGE BEACH    MOCLDY    64  55  72 S10       29.97S
SPRINGFIELD    PTCLDY    63  57  81 S16       29.95S
BRANSON        PTCLDY    63  57  82 SE8       30.00S
JOPLIN         PTCLDY    64  59  83 MISG      29.91
WEST PLAINS    CLOUDY    61  56  83 S8        30.07S

$$

IAZ060-094-KSZ022-034>040-054-083-096-NEZ052-066-093-211200-
...KANSAS...SOUTHEAST NEBRASKA AND IOWA...

CITY           SKY/WX    TMP DP  RH WIND       PRES   REMARKS
TOPEKA         CLOUDY    68  61  78 S22G32    29.76F
MANHATTAN      CLOUDY    69  62  78 S17G28    29.70R
EMPORIA        MOCLDY    64  59  83 S30G37    29.77F
CHANUTE        CLOUDY    66  58  75 S18       29.87R
WICHITA        CLOUDY    69  65  86 S24G31    29.74R
OMAHA          TSTM      65  60  84 S17       29.62S
LINCOLN        CLOUDY    69  61  75 S23G37    29.59R
FALLS CITY     CLOUDY    67  60  78 S20G29    29.70F
LAMONI         LGT RAIN  63  56  78 S17G26    29.81R
DES MOINES     CLOUDY    64  58  80 S18G26    29.76F

$$





USA.gov is the U.S. government's official web portal to all federal, state and local government web resources and services.